Mackinac Island, MI

3:51 PM EDT on August 27, 2016 (GMT -0400)
Mackinac Island

Weather History for KMCD - April, 2013

Change the Weather History Date:

Saturday, April 13, 2013

  Actual Average Record
Temperature  
Mean Temperature 32 °F -  
Max Temperature 35 °F 45 °F 60 °F (2005)
Min Temperature 30 °F 29 °F 13 °F (1992)
Degree Days  
Heating Degree Days 32    
Moisture  
Dew Point 30 °F    
Average Humidity 89    
Maximum Humidity 95    
Minimum Humidity 77    
Precipitation  
Precipitation 0.00 in - - ()
Sea Level Pressure  
Sea Level Pressure 29.72 in    
Wind  
Wind Speed 6 mph (West)    
Max Wind Speed 15 mph    
Max Gust Speed 28 mph    
Visibility 7 miles    
Events Snow    
Averages and records for this station are not official NWS values.
T = Trace of Precipitation, MM = Missing Value Source: NWS Daily Summary

Daily Weather History Graph

Daily Weather History Graph

Search for Another Location

Airport or City:

Trip Planner

Search our weather history database for the weather conditions in past years. The results will help you decide how hot, cold, wet, or windy it might be!

Date:

Astronomy

Apr. 13, 2013 Rise Set
Actual Time 6:55 AM EDT 8:23 PM EDT
Civil Twilight 6:24 AM EDT 8:54 PM EDT
Nautical Twilight 5:47 AM EDT 9:31 PM EDT
Astronomical Twilight 5:07 AM EDT 10:12 PM EDT
Moon 8:38 AM EDT (4/13) 11:55 PM EDT (4/13)
Length of Visible Light 14h 29m
Length of Day
13h 27m
Waxing Crescent, 10% of the Moon is Illuminated
Apr 13
Waxing Crescent
Apr 18
First Quarter
Apr 25
Full
May 2
Last Quarter
May 9
New

Hourly Weather History & Observations

Time (EDT) Temp. Windchill Dew Point Humidity Pressure Visibility Wind Dir Wind Speed Gust Speed Precip Events Conditions
12:15 AM 31.6 °F 25.1 °F 29.5 °F 92% 29.68 in 5.0 mi ENE 6.9 mph - N/A Snow Light Snow
12:35 AM 31.5 °F 24.9 °F 29.5 °F 92% 29.68 in 3.0 mi ENE 6.9 mph - N/A Snow Light Snow
12:56 AM 31.5 °F 25.8 °F 29.5 °F 92% 29.68 in 5.0 mi NE 5.8 mph - N/A Snow Light Snow
1:15 AM 31.5 °F 24.9 °F 29.3 °F 92% 29.68 in 10.0 mi ENE 6.9 mph - N/A   Overcast
1:35 AM 31.5 °F 25.8 °F 29.3 °F 92% 29.68 in 10.0 mi ENE 5.8 mph - N/A   Overcast
1:56 AM 31.5 °F 25.8 °F 29.3 °F 92% 29.68 in 10.0 mi NE 5.8 mph - N/A   Overcast
2:15 AM 31.5 °F 25.8 °F 29.3 °F 92% 29.68 in 10.0 mi NE 5.8 mph - N/A   Overcast
2:35 AM 31.5 °F 28.1 °F 29.3 °F 92% 29.68 in 10.0 mi NE 3.5 mph - N/A   Overcast
2:56 AM 31.5 °F 26.8 °F 29.3 °F 92% 29.68 in 10.0 mi NNE 4.6 mph - N/A   Overcast
3:15 AM 31.5 °F - 29.3 °F 92% 29.68 in 10.0 mi Calm Calm - N/A   Overcast
3:36 AM 31.3 °F - 29.3 °F 92% 29.68 in 10.0 mi Calm Calm - N/A   Overcast
3:56 AM 31.5 °F - 29.7 °F 93% 29.68 in 10.0 mi Calm Calm - N/A   Overcast
4:15 AM 31.5 °F - 29.7 °F 93% 29.68 in 10.0 mi Calm Calm - N/A   Overcast
4:36 AM 31.1 °F - 29.3 °F 93% 29.68 in 10.0 mi Calm Calm - N/A   Overcast
4:56 AM 31.1 °F - 29.3 °F 93% 29.68 in 7.0 mi Calm Calm - N/A   Overcast
5:15 AM 31.1 °F 26.4 °F 29.3 °F 93% 29.68 in 7.0 mi NNW 4.6 mph - N/A   Overcast
5:36 AM 30.9 °F - 29.3 °F 94% 29.68 in 7.0 mi Calm Calm - N/A   Overcast
5:56 AM 30.9 °F - 29.3 °F 94% 29.68 in 4.0 mi Calm Calm - N/A   Overcast
6:15 AM 30.9 °F - 29.3 °F 94% 29.68 in 10.0 mi Calm Calm - N/A   Overcast
6:36 AM 30.9 °F - 29.3 °F 94% 29.68 in 10.0 mi Calm Calm - N/A Snow Light Snow
6:56 AM 30.9 °F - 29.3 °F 94% 29.67 in 10.0 mi Calm Calm - N/A   Overcast
7:15 AM 30.2 °F - 28.8 °F 94% 29.68 in 10.0 mi Calm Calm - N/A   Overcast
7:36 AM 30.6 °F - 28.9 °F 94% 29.68 in 10.0 mi Calm Calm - N/A Snow Light Snow
7:56 AM 30.9 °F - 29.3 °F 94% 29.68 in 3.0 mi Calm Calm - N/A Snow Light Snow
8:15 AM 31.1 °F - 29.7 °F 94% 29.69 in 7.0 mi Calm Calm - N/A Snow Light Snow
8:35 AM 31.5 °F - 29.7 °F 93% 29.68 in 3.0 mi Calm Calm - N/A Snow Light Snow
8:55 AM 32.0 °F 25.6 °F 30.2 °F 93% 29.68 in 3.0 mi SSW 6.9 mph - N/A Snow Light Snow
9:15 AM 32.0 °F 28.7 °F 30.2 °F 93% 29.68 in 4.0 mi SSW 3.5 mph - N/A Snow Light Snow
9:36 AM 32.0 °F 27.5 °F 30.7 °F 95% 29.68 in 2.0 mi SW 4.6 mph - N/A Snow Light Snow
9:55 AM 32.0 °F 26.4 °F 30.6 °F 94% 29.68 in 2.0 mi WSW 5.8 mph - N/A Snow Light Snow
10:15 AM 32.0 °F 27.5 °F 29.3 °F 90% 29.67 in 3.0 mi WSW 4.6 mph - N/A Snow Light Snow
10:36 AM 32.4 °F 27.9 °F 30.2 °F 92% 29.67 in 5.0 mi WSW 4.6 mph - N/A Snow Light Snow
10:55 AM 32.9 °F 25.9 °F 30.0 °F 89% 29.67 in 5.0 mi West 8.1 mph - N/A Snow Light Snow
11:15 AM 33.1 °F 26.9 °F 29.8 °F 88% 29.68 in 4.0 mi West 6.9 mph - N/A   Overcast
11:36 AM 33.4 °F 26.6 °F 30.0 °F 87% 29.68 in 4.0 mi West 8.1 mph - N/A Snow Light Snow
11:55 AM 34.2 °F 27.5 °F 29.8 °F 84% 29.68 in 4.0 mi West 8.1 mph - N/A Snow Light Snow
12:15 PM 34.7 °F 28.8 °F 29.3 °F 81% 29.68 in 5.0 mi West 6.9 mph - N/A Snow Light Snow
12:36 PM 34.9 °F 28.3 °F 28.9 °F 79% 29.68 in 7.0 mi West 8.1 mph - N/A Snow Light Snow
12:55 PM 34.7 °F 28.1 °F 28.8 °F 79% 29.68 in 5.0 mi West 8.1 mph - N/A Snow Light Snow
1:15 PM 34.3 °F 28.4 °F 28.8 °F 80% 29.68 in 7.0 mi West 6.9 mph - N/A Snow Light Snow
1:36 PM 34.3 °F 27.7 °F 28.0 °F 78% 29.68 in 7.0 mi West 8.1 mph - N/A Snow Light Snow
1:55 PM 33.8 °F 28.6 °F 29.3 °F 84% 29.69 in 10.0 mi WSW 5.8 mph - N/A   Overcast
2:15 PM 33.8 °F 25.8 °F 29.7 °F 85% 29.69 in 10.0 mi WSW 10.4 mph - N/A   Overcast
2:36 PM 34.2 °F 26.8 °F 29.3 °F 82% 29.70 in 10.0 mi WSW 9.2 mph - N/A   Scattered Clouds
2:55 PM 34.3 °F 25.9 °F 29.3 °F 82% 29.70 in 10.0 mi WSW 11.5 mph - N/A   Clear
3:15 PM 34.7 °F 25.1 °F 29.8 °F 82% 29.70 in 10.0 mi WSW 15.0 mph 19.6 mph N/A   Scattered Clouds
3:36 PM 35.1 °F 26.4 °F 28.4 °F 77% 29.71 in 10.0 mi WSW 12.7 mph 18.4 mph N/A   Scattered Clouds
3:55 PM 34.7 °F 25.1 °F 28.6 °F 78% 29.71 in 10.0 mi WSW 15.0 mph 20.7 mph N/A   Scattered Clouds
4:15 PM 34.9 °F 25.7 °F 29.5 °F 81% 29.72 in 10.0 mi WSW 13.8 mph 21.9 mph N/A   Mostly Cloudy
4:36 PM 35.1 °F 26.4 °F 29.3 °F 80% 29.73 in 10.0 mi WSW 12.7 mph 21.9 mph N/A   Overcast
4:55 PM 34.7 °F 25.5 °F 29.1 °F 80% 29.73 in 10.0 mi WSW 13.8 mph 21.9 mph N/A   Mostly Cloudy
5:16 PM 34.0 °F 24.2 °F 29.3 °F 83% 29.74 in 4.0 mi WSW 15.0 mph 27.6 mph N/A Snow Light Snow
5:36 PM 34.0 °F 24.2 °F 30.0 °F 85% 29.74 in 10.0 mi WSW 15.0 mph 21.9 mph N/A Snow Light Snow
5:55 PM 33.8 °F 24.8 °F 30.4 °F 87% 29.75 in 1.8 mi WSW 12.7 mph 24.2 mph N/A Snow Light Snow
6:16 PM 33.1 °F 23.0 °F 31.1 °F 92% 29.76 in 1.0 mi WSW 15.0 mph 24.2 mph N/A Snow Light Snow
6:36 PM 33.1 °F 23.4 °F 31.6 °F 94% 29.77 in 1.0 mi WSW 13.8 mph 23.0 mph N/A Snow Light Snow
6:55 PM 33.1 °F 24.9 °F 31.6 °F 94% 29.77 in 3.0 mi WSW 10.4 mph 24.2 mph N/A Snow Light Snow
7:16 PM 33.1 °F 25.5 °F 31.8 °F 95% 29.78 in 1.8 mi WSW 9.2 mph 19.6 mph N/A Snow Light Snow
7:35 PM 33.3 °F 24.1 °F 32.0 °F 95% 29.78 in 1.8 mi West 12.7 mph 18.4 mph N/A Snow Light Snow
7:55 PM 33.3 °F 25.1 °F 32.0 °F 95% 29.79 in 1.0 mi West 10.4 mph 17.3 mph N/A Snow Light Snow
8:16 PM 32.5 °F 24.8 °F 30.7 °F 93% 29.80 in 10.0 mi WNW 9.2 mph - N/A   Overcast
8:35 PM 32.4 °F 24.6 °F 30.6 °F 93% 29.80 in 3.0 mi WNW 9.2 mph - N/A   Overcast
8:55 PM 32.4 °F 25.3 °F 30.6 °F 93% 29.81 in 10.0 mi WNW 8.1 mph - N/A   Overcast
9:16 PM 32.0 °F 24.8 °F 30.7 °F 95% 29.82 in 10.0 mi WNW 8.1 mph - N/A   Mostly Cloudy
9:35 PM 32.0 °F 24.2 °F 30.0 °F 92% 29.83 in 10.0 mi West 9.2 mph - N/A   Scattered Clouds
9:55 PM 32.0 °F 23.0 °F 29.8 °F 92% 29.84 in 7.0 mi West 11.5 mph - N/A   Mostly Cloudy
10:16 PM 31.6 °F 25.1 °F 29.3 °F 91% 29.85 in 10.0 mi West 6.9 mph - N/A   Scattered Clouds
10:35 PM 32.0 °F 26.4 °F 29.8 °F 92% 29.85 in 10.0 mi West 5.8 mph - N/A   Mostly Cloudy
10:55 PM 32.0 °F 23.6 °F 28.8 °F 88% 29.86 in 10.0 mi West 10.4 mph - N/A   Overcast
11:16 PM 32.0 °F 23.6 °F 28.8 °F 88% 29.86 in 10.0 mi West 10.4 mph - N/A   Overcast
11:35 PM 32.0 °F 24.2 °F 28.8 °F 88% 29.86 in 10.0 mi WNW 9.2 mph - N/A   Overcast
11:55 PM 32.0 °F 24.2 °F 28.4 °F 87% 29.87 in 10.0 mi WNW 9.2 mph - N/A   Overcast